Change the Weather History Date:

Saturday, November 10, 2012

  Actual Average Record
Temperature  
Mean Temperature 22 °F -  
Max Temperature 37 °F 12 °F 59 °F (1997)
Min Temperature 7 °F -2 °F -2 °F (2007)
Degree Days  
Heating Degree Days 42    
Moisture  
Dew Point 9 °F    
Average Humidity 81    
Maximum Humidity 85    
Minimum Humidity 45    
Precipitation  
Precipitation 0.23 in - - ()
Sea Level Pressure  
Sea Level Pressure 29.72 in    
Wind  
Wind Speed 6 mph (NW)    
Max Wind Speed 13 mph    
Max Gust Speed -    
Visibility 4 miles    
Events Snow    
Averages and records for this station are not official NWS values.
T = Trace of Precipitation, MM = Missing Value Source: NWS Daily Summary

Daily Weather History Graph

Daily Weather History Graph

Search for Another Location

Airport or City:

Trip Planner

Search our weather history database for the weather conditions in past years. The results will help you decide how hot, cold, wet, or windy it might be!

Date:

Astronomy

Nov. 10, 2012 Rise Set
Actual Time 9:14 AM AKST 4:05 PM AKST
Civil Twilight 8:15 AM AKST 5:04 PM AKST
Nautical Twilight 7:14 AM AKST 6:04 PM AKST
Astronomical Twilight 6:18 AM AKST 7:01 PM AKST
Moon 4:18 AM AKST (11/10) 2:59 PM AKST (11/10)
Length of Visible Light 8h 48m
Length of Day
6h 50m
Waning Crescent, 13% of the Moon is Illuminated
Nov 10
Waning Crescent
Nov 13
New
Nov 20
First Quarter
Nov 28
Full
Dec 6
Last Quarter

Hourly Weather History & Observations

Time (AKST) Temp. Windchill Dew Point Humidity Pressure Visibility Wind Dir Wind Speed Gust Speed Precip Events Conditions
12:53 AM 18.0 °F 8.7 °F 10.9 °F 74% 29.79 in 7.0 mi ENE 6.9 mph - 0.00 in Snow Light Snow
1:19 AM 17.6 °F 9.3 °F 10.4 °F 73% 29.75 in 2.5 mi NE 5.8 mph - 0.01 in Snow Light Snow
1:53 AM 18.0 °F 9.8 °F 12.0 °F 78% 29.78 in 4.0 mi ENE 5.8 mph - 0.01 in Snow Light Snow
3:25 AM 17.6 °F 6.4 °F 12.2 °F 79% 29.73 in 1.8 mi ENE 9.2 mph - 0.00 in Snow Light Snow
3:32 AM 17.6 °F 8.2 °F 12.2 °F 79% 29.73 in 2.5 mi ENE 6.9 mph - 0.01 in Snow Light Snow
3:40 AM 17.6 °F 9.3 °F 12.2 °F 79% 29.73 in 3.0 mi ENE 5.8 mph - 0.01 in Snow Light Snow
3:48 AM 17.6 °F 10.7 °F 12.2 °F 79% 29.72 in 2.0 mi ENE 4.6 mph - 0.01 in Snow Light Snow
3:53 AM 18.0 °F 9.8 °F 12.9 °F 81% 29.76 in 1.8 mi East 5.8 mph - 0.01 in Snow Light Snow
4:03 AM 17.6 °F 9.3 °F 12.2 °F 79% 29.72 in 3.0 mi ENE 5.8 mph - 0.00 in Snow Light Snow
4:53 AM 12.9 °F 6.9 °F 8.1 °F 81% 29.75 in 9.0 mi WNW 3.5 mph - 0.01 in Snow Light Snow
5:53 AM 12.0 °F 5.9 °F 8.1 °F 84% 29.74 in 7.0 mi West 3.5 mph - 0.00 in Snow Light Snow
6:53 AM 12.0 °F 5.9 °F 8.1 °F 84% 29.73 in 6.0 mi WNW 3.5 mph - 0.00 in Snow Light Snow
7:17 AM 12.2 °F 6.1 °F 6.8 °F 79% 29.69 in 2.0 mi WNW 3.5 mph - 0.01 in Snow Light Snow
7:33 AM 12.2 °F 6.1 °F 6.8 °F 79% 29.69 in 1.8 mi WNW 3.5 mph - 0.01 in Snow Light Snow
7:53 AM 10.9 °F 2.9 °F 7.0 °F 84% 29.73 in 1.8 mi WNW 4.6 mph - 0.01 in Snow Light Snow
8:53 AM 10.9 °F 2.9 °F 7.0 °F 84% 29.73 in 1.5 mi WNW 4.6 mph - 0.02 in Snow Light Snow
9:16 AM 12.2 °F 4.3 °F 8.6 °F 85% 29.69 in 2.0 mi WNW 4.6 mph - 0.01 in Snow Light Snow
9:31 AM 12.2 °F 4.3 °F 8.6 °F 85% 29.69 in 1.8 mi WNW 4.6 mph - 0.01 in Snow Light Snow
9:53 AM 12.0 °F 5.9 °F 8.1 °F 84% 29.73 in 0.8 mi NW 3.5 mph - 0.02 in Snow Light Snow
10:06 AM 12.2 °F 4.3 °F 8.6 °F 85% 29.69 in 1.0 mi WNW 4.6 mph - 0.00 in Snow Light Snow
10:53 AM 12.0 °F 4.1 °F 8.1 °F 84% 29.73 in 1.0 mi NW 4.6 mph - 0.01 in Snow Light Snow
11:08 AM 12.2 °F 1.7 °F 8.6 °F 85% 29.69 in 0.8 mi NW 6.9 mph - 0.00 in Snow Light Snow
11:16 AM 12.2 °F 1.7 °F 8.6 °F 85% 29.69 in 1.0 mi WNW 6.9 mph - 0.01 in Snow Light Snow
11:53 AM 12.9 °F 3.8 °F 8.1 °F 81% 29.73 in 1.2 mi NW 5.8 mph - 0.01 in Snow Light Snow
12:10 PM 12.2 °F 4.3 °F 8.6 °F 85% 29.69 in 0.8 mi NW 4.6 mph - 0.01 in Snow Light Snow
12:53 PM 12.9 °F 2.6 °F 9.0 °F 84% 29.73 in 0.8 mi NW 6.9 mph - 0.03 in Snow Light Snow
1:01 PM 12.2 °F 2.9 °F 8.6 °F 85% 29.69 in 1.0 mi WNW 5.8 mph - 0.00 in Snow Light Snow
1:23 PM 12.2 °F 1.7 °F 8.6 °F 85% 29.69 in 1.2 mi NW 6.9 mph - 0.01 in Snow Light Snow
1:53 PM 12.9 °F 3.8 °F 8.1 °F 81% 29.73 in 1.2 mi NW 5.8 mph - 0.02 in Snow Light Snow
2:09 PM 12.2 °F 1.7 °F 8.6 °F 85% 29.69 in 1.2 mi NW 6.9 mph - 0.00 in Snow Light Snow
2:53 PM 12.9 °F 3.8 °F 9.0 °F 84% 29.72 in 1.0 mi WNW 5.8 mph - 0.01 in Snow Light Snow
3:15 PM 12.2 °F 0.7 °F 8.6 °F 85% 29.68 in 3.0 mi NW 8.1 mph - 0.01 in Snow Light Snow
3:53 PM 12.9 °F 3.8 °F 9.0 °F 84% 29.71 in 2.0 mi WNW 5.8 mph - 0.01 in Snow Light Snow
4:09 PM 12.2 °F 1.7 °F 8.6 °F 85% 29.67 in 4.0 mi NW 6.9 mph - 0.00 in Snow Light Snow
4:18 PM 12.2 °F 1.7 °F 8.6 °F 85% 29.67 in 1.8 mi WNW 6.9 mph - 0.00 in Snow Light Snow
4:37 PM 12.2 °F 2.9 °F 8.6 °F 85% 29.67 in 1.2 mi NW 5.8 mph - 0.01 in Snow Light Snow
4:53 PM 12.0 °F 1.5 °F 8.1 °F 84% 29.71 in 1.5 mi NW 6.9 mph - 0.02 in Snow Light Snow
5:53 PM 12.0 °F 2.7 °F 8.1 °F 84% 29.72 in 1.5 mi NW 5.8 mph - 0.02 in Snow Light Snow
6:32 PM 10.4 °F -0.4 °F 6.8 °F 85% 29.68 in 3.0 mi NW 6.9 mph - 0.01 in Snow Light Snow
6:40 PM 10.4 °F 0.8 °F 6.8 °F 85% 29.68 in 4.0 mi NW 5.8 mph - 0.01 in Snow Light Snow
6:53 PM 10.9 °F 1.4 °F 7.0 °F 84% 29.72 in 7.0 mi NW 5.8 mph - 0.01 in Snow Light Snow
7:53 PM 10.9 °F 0.2 °F 6.1 °F 81% 29.73 in 9.0 mi NW 6.9 mph - 0.00 in Snow Light Snow
8:00 PM 10.4 °F 0.8 °F 6.8 °F 85% 29.69 in 9.0 mi NW 5.8 mph - 0.00 in Snow Light Snow
8:50 PM 10.4 °F -0.4 °F 6.8 °F 85% 29.69 in 7.0 mi NW 6.9 mph - 0.01 in Snow Light Snow
8:53 PM 10.0 °F -0.9 °F 6.1 °F 84% 29.73 in 5.0 mi NW 6.9 mph - 0.01 in Snow Light Snow
9:11 PM 10.4 °F 0.8 °F 5.0 °F 79% 29.69 in 8.0 mi NW 5.8 mph - 0.00 in Snow Light Snow
9:22 PM 10.4 °F -0.4 °F 5.0 °F 79% 29.69 in 10.0 mi NW 6.9 mph - 0.00 in   Overcast
9:29 PM 10.4 °F 0.8 °F 5.0 °F 79% 29.69 in 10.0 mi NW 5.8 mph - 0.00 in   Overcast
9:53 PM 9.0 °F -2.2 °F 3.9 °F 80% 29.73 in 10.0 mi NW 6.9 mph - 0.00 in   Overcast
10:53 PM 8.1 °F -4.3 °F 3.0 °F 80% 29.74 in 5.0 mi NW 8.1 mph - 0.00 in Snow Light Snow
11:15 PM 8.6 °F -2.6 °F 3.2 °F 79% 29.70 in 9.0 mi NW 6.9 mph - 0.00 in Snow Light Snow
11:53 PM 7.0 °F -4.5 °F 3.0 °F 84% 29.75 in 10.0 mi NW 6.9 mph - 0.00 in   Overcast